CW5689 Weather Reports


Display with metric or nautical units.
time (UTC)temp
F
wind
direction
speed
MPH
gust
MPH
rain 1hr
in
rain 24hr
in
rain mn
in
humidity
%
barometer
mb
20260831082517 72 195 2.0 5.0 0.00 0.00 0.00 89 1007.3
20260831082019 72 0 0.0 4.0 0.00 0.00 0.00 89 1007.4
20260831081542 72 204 1.0 6.0 0.00 0.00 0.00 89 1007.4
20260831081020 72 0 1.0 6.0 0.00 0.00 0.00 89 1007.4
20260831080520 72 170 1.0 4.0 0.00 0.00 0.00 89 1007.3
20260831080042 72 192 1.0 4.0 0.00 0.00 0.00 89 1007.4
20260831075519 72 0 0.0 7.0 0.00 0.00 0.00 88 1007.3
20260831075018 72 0 0.0 9.0 0.00 0.00 0.00 88 1007.4
20260831074542 72 215 2.0 9.0 0.00 0.00 0.00 88 1007.4
20260831074019 72 157 3.0 8.0 0.00 0.00 0.00 88 1007.4
20260831073520 72 181 2.0 8.0 0.00 0.00 0.00 88 1007.3
20260831073040 72 188 2.0 6.0 0.00 0.00 0.00 88 1007.4
20260831072521 72 186 2.0 7.0 0.00 0.00 0.00 88 1007.4
20260831072022 72 175 2.0 8.0 0.00 0.00 0.00 88 1007.5
20260831071544 72 176 2.0 8.0 0.00 0.00 0.00 88 1007.6
20260831071020 72 205 2.0 8.0 0.00 0.00 0.00 88 1007.6
20260831070524 72 160 1.0 6.0 0.00 0.00 0.00 88 1007.7
20260831070040 72 142 2.0 6.0 0.00 0.00 0.00 87 1007.8
20260831065520 72 220 3.0 8.0 0.00 0.00 0.00 87 1007.9
20260831065018 72 195 3.0 9.0 0.00 0.00 0.00 87 1007.9
20260831064539 72 148 3.0 9.0 0.00 0.00 0.00 87 1008.0
20260831064023 73 195 2.0 7.0 0.00 0.00 0.00 87 1008.0
20260831063521 73 184 2.0 7.0 0.00 0.00 0.00 87 1008.0
20260831063042 73 164 2.0 7.0 0.00 0.00 0.00 86 1008.0
20260831062521 73 170 1.0 7.0 0.00 0.00 0.00 86 1008.1
20260831062024 73 215 1.0 8.0 0.00 0.00 0.00 86 1008.2
20260831061538 73 170 2.0 8.0 0.00 0.00 0.00 86 1008.1
20260831061019 73 159 2.0 5.0 0.00 0.00 0.00 86 1008.3
20260831060517 73 172 2.0 6.0 0.00 0.00 0.00 86 1008.3
20260831060044 73 187 2.0 7.0 0.00 0.00 0.00 86 1008.4
20260831055519 73 178 2.0 7.0 0.00 0.00 0.00 85 1008.5
20260831055019 73 181 2.0 6.0 0.00 0.00 0.00 85 1008.6
20260831054540 73 164 1.0 5.0 0.00 0.00 0.00 85 1008.5
20260831054028 73 180 0.0 5.0 0.00 0.00 0.00 85 1008.6
20260831053521 73 171 2.0 6.0 0.00 0.00 0.00 85 1008.6
20260831053041 73 173 2.0 6.0 0.00 0.00 0.00 85 1008.8
20260831052521 73 182 2.0 7.0 0.00 0.00 0.00 85 1008.8
20260831052019 74 181 2.0 7.0 0.00 0.00 0.00 84 1008.8
20260831051552 74 168 2.0 7.0 0.00 0.00 0.00 84 1008.8
20260831051018 74 174 2.0 6.0 0.00 0.00 0.00 84 1008.8
20260831050520 74 145 1.0 7.0 0.00 0.00 0.00 83 1009.0
20260831050042 74 172 0.0 7.0 0.00 0.00 0.00 83 1008.9
20260831045520 74 165 3.0 7.0 0.00 0.00 0.00 83 1009.0
20260831045020 74 178 1.0 5.0 0.00 0.00 0.00 83 1009.0
20260831044538 74 0 3.0 9.0 0.00 0.00 0.00 83 1008.9
20260831044019 74 172 3.0 9.0 0.00 0.00 0.00 82 1009.1
20260831043520 74 176 3.0 7.0 0.00 0.00 0.00 82 1009.1
20260831043042 75 192 2.0 6.0 0.00 0.00 0.00 82 1009.1
20260831042522 75 225 1.0 10.0 0.00 0.00 0.00 82 1009.1
20260831042019 75 175 3.0 10.0 0.00 0.00 0.00 82 1009.1
20260831041540 75 210 2.0 11.0 0.00 0.00 0.00 81 1009.0
20260831041018 75 199 4.0 11.0 0.00 0.00 0.00 81 1009.0
20260831040518 75 170 2.0 9.0 0.00 0.00 0.00 81 1009.0
20260831040040 75 0 2.0 7.0 0.00 0.00 0.00 81 1008.9
20260831035524 75 172 2.0 12.0 0.00 0.00 0.00 81 1008.9
20260831035023 75 169 3.0 12.0 0.00 0.00 0.00 80 1009.0
20260831034548 75 168 3.0 11.0 0.00 0.00 0.00 80 1009.1
20260831034019 75 178 3.0 8.0 0.00 0.00 0.00 80 1009.1
20260831033519 76 160 2.0 11.0 0.00 0.00 0.00 80 1009.1
20260831033041 76 207 4.0 11.0 0.00 0.00 0.00 80 1008.9
20260831032518 76 0 1.0 11.0 0.00 0.00 0.00 80 1008.8
20260831032018 76 195 3.0 14.0 0.00 0.00 0.00 79 1008.9
20260831031539 76 184 3.0 14.0 0.00 0.00 0.00 79 1009.1
20260831031019 76 175 3.0 9.0 0.00 0.00 0.00 79 1009.2
20260831030518 76 190 4.0 9.0 0.00 0.00 0.00 79 1009.1
20260831030039 76 174 2.0 9.0 0.00 0.00 0.00 78 1009.1
20260831025519 76 0 0.0 9.0 0.00 0.00 0.00 78 1009.0
20260831025023 77 0 1.0 8.0 0.00 0.00 0.00 78 1009.1
20260831024542 77 190 2.0 9.0 0.00 0.00 0.00 78 1009.0
20260831024020 77 161 1.0 9.0 0.00 0.00 0.00 77 1009.0
20260831023520 77 196 3.0 15.0 0.00 0.00 0.00 77 1008.9
20260831023046 77 183 4.0 16.0 0.00 0.00 0.00 76 1009.0
20260831022520 77 182 4.0 16.0 0.00 0.00 0.00 76 1009.1
20260831022019 78 192 4.0 11.0 0.00 0.00 0.00 76 1009.2
20260831021544 78 178 4.0 11.0 0.00 0.00 0.00 75 1009.2
20260831021023 78 177 4.0 11.0 0.00 0.00 0.00 75 1009.2
20260831020519 78 144 2.0 13.0 0.00 0.00 0.00 75 1009.2
20260831020048 78 168 4.0 14.0 0.00 0.00 0.00 75 1009.2
20260831015520 78 163 7.0 14.0 0.00 0.00 0.00 75 1009.2
20260831015023 78 171 3.0 14.0 0.00 0.00 0.00 75 1009.0
20260831014538 78 183 3.0 14.0 0.00 0.00 0.00 75 1009.0
20260831014024 79 230 4.0 13.0 0.00 0.00 0.00 76 1009.0
20260831013524 79 140 2.0 7.0 0.00 0.00 0.00 76 1008.9
20260831013043 79 162 2.0 7.0 0.00 0.00 0.00 76 1008.8
20260831012527 79 0 1.0 9.0 0.00 0.00 0.00 76 1008.7
20260831012024 79 0 3.0 11.0 0.00 0.00 0.00 76 1008.6
20260831011545 79 226 4.0 11.0 0.00 0.00 0.00 75 1008.6
20260831011018 80 0 2.0 7.0 0.00 0.00 0.00 76 1008.7
20260831010519 80 178 1.0 6.0 0.00 0.00 0.00 77 1008.6
20260831010044 80 153 2.0 6.0 0.00 0.00 0.00 77 1008.6
20260831005521 80 0 1.0 5.0 0.00 0.00 0.00 76 1008.6
20260831005020 80 0 0.0 3.0 0.00 0.00 0.00 76 1008.5
20260831004542 80 0 0.0 3.0 0.00 0.00 0.00 76 1008.5
20260831004028 81 0 0.0 3.0 0.00 0.00 0.00 76 1008.3
20260831003527 81 0 0.0 6.0 0.00 0.00 0.00 76 1008.2
20260831003045 81 0 0.0 6.0 0.00 0.00 0.00 75 1008.1
20260831002519 81 187 1.0 6.0 0.00 0.00 0.00 74 1008.1
20260831002023 81 163 2.0 6.0 0.00 0.00 0.00 74 1008.2
20260831001540 81 186 2.0 7.0 0.00 0.00 0.00 74 1008.2
20260831001023 81 0 0.0 7.0 0.00 0.00 0.00 76 1008.0
20260831000523 81 184 2.0 7.0 0.00 0.00 0.00 75 1008.1
20260831000044 82 188 1.0 6.0 0.00 0.00 0.00 76 1008.2
20260830235519 82 111 0.0 6.0 0.00 0.00 0.00 77 1008.2
20260830235018 82 0 0.0 6.0 0.00 0.00 0.00 78 1008.2
20260830234547 82 0 0.0 4.0 0.00 0.00 0.00 78 1008.2
20260830234021 82 0 1.0 6.0 0.00 0.00 0.00 78 1008.1
20260830233519 82 86 3.0 6.0 0.00 0.00 0.00 78 1008.1
20260830233039 82 81 3.0 6.0 0.00 0.00 0.00 78 1008.0
20260830232525 82 86 3.0 7.0 0.00 0.00 0.00 77 1008.1
20260830232024 82 82 2.0 7.0 0.00 0.00 0.00 77 1008.2
20260830231547 82 80 3.0 7.0 0.00 0.00 0.00 77 1008.2
20260830231024 83 81 3.0 8.0 0.00 0.00 0.00 77 1008.2
20260830230521 82 86 3.0 9.0 0.00 0.00 0.00 77 1008.1
20260830230043 83 76 6.0 9.0 0.00 0.00 0.00 76 1008.0
20260830225518 83 82 3.0 7.0 0.00 0.00 0.00 77 1008.0
20260830225020 83 86 3.0 8.0 0.00 0.00 0.00 76 1008.0
20260830224541 83 79 4.0 8.0 0.00 0.00 0.00 76 1008.0
20260830224019 83 80 3.0 7.0 0.00 0.00 0.00 76 1007.9
20260830223519 83 79 4.0 9.0 0.00 0.00 0.00 76 1007.9
20260830223051 83 80 3.0 9.0 0.00 0.00 0.00 76 1007.9
20260830222519 83 79 6.0 9.0 0.00 0.00 0.00 75 1007.8
20260830222019 83 74 5.0 8.0 0.00 0.00 0.00 75 1007.8
20260830221546 83 81 5.0 8.0 0.00 0.00 0.00 75 1007.8
20260830221018 83 99 1.0 7.0 0.00 0.00 0.00 76 1007.9
20260830220518 83 91 2.0 7.0 0.00 0.00 0.00 75 1007.9
20260830220044 83 98 1.0 6.0 0.00 0.00 0.00 74 1008.0
20260830215522 84 194 1.0 5.0 0.00 0.00 0.00 75 1007.9
20260830215020 84 0 1.0 5.0 0.00 0.00 0.00 75 1008.0
20260830214540 84 165 2.0 6.0 0.00 0.00 0.00 75 1008.0
20260830214021 84 121 0.0 6.0 0.00 0.00 0.00 75 1008.0
20260830213521 84 93 3.0 7.0 0.00 0.00 0.00 75 1008.0
20260830213041 83 140 1.0 8.0 0.00 0.00 0.00 76 1008.1
20260830212519 83 161 2.0 8.0 0.00 0.00 0.00 77 1008.1
20260830212018 83 127 1.0 7.0 0.00 0.00 0.00 75 1008.2
20260830211542 83 183 2.0 7.0 0.00 0.00 0.00 75 1008.2
20260830211021 83 101 2.0 7.0 0.00 0.00 0.00 75 1008.3
20260830210520 83 188 2.0 7.0 0.00 0.00 0.00 76 1008.3
20260830210040 83 85 2.0 8.0 0.00 0.00 0.00 76 1008.3
20260830205518 83 76 2.0 8.0 0.00 0.00 0.00 77 1008.3
20260830205018 83 0 3.0 8.0 0.00 0.00 0.00 76 1008.5
20260830204549 83 86 3.0 7.0 0.00 0.00 0.00 77 1008.7
20260830204019 82 80 2.0 7.0 0.00 0.00 0.00 77 1008.7
20260830203518 82 74 1.0 8.0 0.00 0.00 0.00 79 1008.6
20260830203037 82 74 3.0 10.0 0.00 0.00 0.00 76 1008.7
20260830202523 82 80 5.0 10.0 0.00 0.00 0.00 75 1008.7
20260830202025 82 82 5.0 9.0 0.00 0.00 0.00 75 1008.5
20260830201540 82 78 5.0 9.0 0.00 0.00 0.00 75 1008.4
20260830201019 82 78 6.0 10.0 0.00 0.00 0.00 75 1008.4
20260830200519 82 65 5.0 10.0 0.00 0.00 0.00 75 1008.5
20260830200046 82 80 6.0 10.0 0.00 0.00 0.00 75 1008.4
20260830195520 82 74 5.0 10.0 0.00 0.00 0.00 75 1008.5
20260830195020 82 81 3.0 14.0 0.00 0.00 0.00 78 1008.3
20260830194539 82 82 5.0 14.0 0.00 0.00 0.00 75 1008.3
20260830194020 82 62 5.0 10.0 0.00 0.00 0.00 74 1008.3
20260830193519 82 50 5.0 11.0 0.00 0.00 0.00 74 1008.5
20260830193041 82 87 5.0 11.0 0.00 0.00 0.00 74 1008.7
20260830192525 82 77 7.0 10.0 0.00 0.00 0.00 74 1008.6
20260830192025 82 76 8.0 10.0 0.00 0.00 0.00 75 1008.7
20260830191542 82 80 5.0 9.0 0.00 0.00 0.00 75 1008.9
20260830191025 82 83 6.0 11.0 0.00 0.00 0.00 76 1009.1
20260830190526 82 79 4.0 12.0 0.00 0.00 0.00 77 1009.2
20260830190045 81 88 8.0 12.0 0.00 0.00 0.00 75 1009.3
20260830185526 81 92 6.0 10.0 0.00 0.00 0.00 77 1009.2
20260830185026 81 88 4.0 10.0 0.00 0.00 0.00 77 1009.2
20260830184545 81 79 6.0 10.0 0.00 0.00 0.00 77 1009.3
20260830184024 81 85 4.0 10.0 0.00 0.00 0.00 78 1009.4
20260830183523 80 80 6.0 10.0 0.00 0.00 0.00 79 1009.5
20260830183051 80 82 3.0 6.0 0.00 0.00 0.00 79 1009.5
20260830182520 80 80 3.0 10.0 0.00 0.00 0.00 80 1009.6
20260830182019 80 78 5.0 10.0 0.00 0.00 0.00 79 1009.5
20260830181543 80 76 5.0 9.0 0.00 0.00 0.00 79 1009.8
20260830181024 79 84 3.0 6.0 0.00 0.00 0.00 79 1010.0
20260830180523 79 98 0.0 4.0 0.00 0.00 0.00 80 1010.0
20260830180045 79 0 1.0 4.0 0.00 0.00 0.00 79 1010.0
20260830175521 79 182 1.0 5.0 0.00 0.00 0.00 79 1010.0
20260830175019 79 0 2.0 5.0 0.00 0.00 0.00 78 1010.2
20260830174554 80 0 2.0 6.0 0.00 0.00 0.00 78 1010.3
20260830174021 80 132 0.0 6.0 0.00 0.00 0.00 79 1010.2
20260830173523 80 109 1.0 5.0 0.00 0.00 0.00 79 1010.1
20260830173039 80 0 0.0 3.0 0.00 0.00 0.00 79 1009.9
20260830172523 79 0 1.0 3.0 0.00 0.00 0.00 79 1009.9
20260830172023 80 0 0.0 3.0 0.00 0.00 0.00 79 1009.9
20260830171542 80 102 1.0 6.0 0.00 0.00 0.00 79 1009.8
20260830171023 80 0 1.0 6.0 0.00 0.00 0.00 79 1009.7
20260830170523 80 80 3.0 6.0 0.00 0.00 0.00 78 1009.8
20260830170042 80 80 3.0 9.0 0.00 0.00 0.00 77 1009.8
20260830165519 80 84 3.0 10.0 0.00 0.00 0.00 76 1009.7
20260830165024 81 76 6.0 10.0 0.00 0.00 0.00 75 1009.6
20260830164538 81 78 3.0 11.0 0.00 0.00 0.00 75 1009.7
20260830164023 81 81 6.0 11.0 0.00 0.00 0.00 74 1009.5
20260830163524 81 76 6.0 9.0 0.00 0.00 0.00 75 1009.4
20260830163038 81 68 3.0 9.0 0.00 0.00 0.00 75 1009.5
20260830162518 81 80 4.0 9.0 0.00 0.00 0.00 76 1009.7
20260830162022 81 73 4.0 15.0 0.00 0.00 0.00 76 1009.6
20260830161549 81 60 8.0 15.0 0.00 0.00 0.00 76 1009.4
20260830161018 81 72 5.0 13.0 0.00 0.00 0.00 75 1009.3
20260830160519 81 82 6.0 13.0 0.00 0.00 0.00 75 1009.2
20260830160043 81 68 3.0 10.0 0.00 0.00 0.00 75 1009.2
20260830155519 81 74 5.0 10.0 0.00 0.00 0.00 75 1009.3
20260830155019 81 75 4.0 8.0 0.00 0.00 0.00 77 1009.2
20260830154538 80 68 4.0 8.0 0.00 0.00 0.00 77 1009.2
20260830154023 80 69 2.0 8.0 0.00 0.00 0.00 77 1009.4
20260830153521 80 68 3.0 8.0 0.00 0.00 0.00 78 1009.5
20260830153038 80 64 4.0 8.0 0.00 0.00 0.00 77 1009.2
20260830152521 80 76 3.0 6.0 0.00 0.00 0.00 77 1009.1
20260830152018 79 76 3.0 8.0 0.00 0.00 0.00 79 1009.2
20260830151539 79 72 3.0 8.0 0.00 0.00 0.00 79 1009.3
20260830151021 79 70 5.0 8.0 0.00 0.00 0.00 79 1009.4
20260830150519 78 76 4.0 8.0 0.00 0.00 0.00 80 1009.1
20260830150044 78 70 4.0 7.0 0.00 0.00 0.00 81 1009.1
20260830145519 78 76 2.0 4.0 0.00 0.00 0.00 82 1009.3
20260830145021 78 74 2.0 4.0 0.00 0.00 0.00 80 1009.4
20260830144537 78 72 3.0 6.0 0.00 0.00 0.00 80 1009.3
20260830144019 78 62 2.0 6.0 0.00 0.00 0.00 79 1009.3
20260830143522 77 63 3.0 7.0 0.00 0.00 0.00 81 1009.5
20260830143045 77 68 2.0 7.0 0.00 0.00 0.00 82 1009.6
20260830142521 76 74 3.0 6.0 0.00 0.00 0.00 85 1009.6
20260830142021 75 75 3.0 5.0 0.00 0.00 0.00 87 1009.6
20260830141543 74 70 2.0 4.0 0.00 0.00 0.00 88 1009.6
20260830141020 73 70 2.0 8.0 0.00 0.00 0.00 88 1009.6
20260830140521 73 68 2.0 8.0 0.00 0.00 0.00 87 1009.5
20260830140043 72 66 4.0 8.0 0.00 0.00 0.00 88 1009.5
20260830135518 71 68 4.0 8.0 0.00 0.13 0.00 89 1009.5
20260830135020 71 64 4.0 8.0 0.00 0.13 0.00 90 1009.4
20260830134542 70 76 4.0 7.0 0.00 0.13 0.00 90 1009.4
20260830134020 70 71 2.0 7.0 0.00 0.13 0.00 91 1009.4
20260830133519 70 67 3.0 7.0 0.00 0.13 0.00 91 1009.4
20260830133041 69 71 2.0 7.0 0.00 0.13 0.00 91 1009.4
20260830132519 69 67 3.0 7.0 0.00 0.13 0.00 91 1009.4
20260830132021 69 75 3.0 7.0 0.00 0.13 0.00 91 1009.6
20260830131541 69 72 3.0 7.0 0.00 0.13 0.00 91 1009.5
20260830131020 69 68 3.0 7.0 0.00 0.13 0.00 91 1009.6
20260830130524 69 70 1.0 4.0 0.00 0.13 0.00 92 1009.7
20260830130043 69 70 0.0 4.0 0.00 0.13 0.00 92 1009.9
20260830125523 68 68 1.0 4.0 0.00 0.26 0.00 92 1009.9
20260830125025 68 0 1.0 5.0 0.00 0.26 0.00 92 1009.8
20260830124544 68 68 1.0 5.0 0.00 0.26 0.00 92 1009.6
20260830124028 68 68 3.0 5.0 0.00 0.26 0.00 92 1009.5
20260830123520 68 69 2.0 4.0 0.00 0.26 0.00 91 1009.6
20260830123042 68 67 1.0 4.0 0.00 0.26 0.00 91 1009.6
20260830122519 68 68 1.0 4.0 0.00 0.26 0.00 91 1009.6
20260830122019 68 68 1.0 4.0 0.00 0.26 0.00 91 1009.4
20260830121541 68 0 0.0 4.0 0.00 0.26 0.00 91 1009.5
20260830121024 68 68 1.0 4.0 0.00 0.26 0.00 91 1009.2
20260830120525 68 67 1.0 4.0 0.00 0.26 0.00 91 1009.1
20260830120040 68 68 1.0 4.0 0.00 0.26 0.00 91 1009.1
20260830115524 68 67 1.0 4.0 0.00 0.33 0.00 91 1009.1
20260830115024 68 0 1.0 3.0 0.00 0.33 0.00 91 1009.1
20260830114540 68 68 1.0 2.0 0.00 0.33 0.00 91 1009.1
20260830114023 68 0 0.0 4.0 0.00 0.33 0.00 91 1009.1
20260830113519 68 68 1.0 4.0 0.00 0.33 0.00 91 1009.0
20260830113043 68 68 1.0 5.0 0.00 0.33 0.00 91 1009.0
20260830112523 68 68 3.0 5.0 0.00 0.33 0.00 91 1009.1
20260830112019 68 66 2.0 5.0 0.00 0.33 0.00 91 1009.3
20260830111539 68 68 2.0 5.0 0.00 0.33 0.00 91 1009.3
20260830111021 68 65 2.0 4.0 0.00 0.33 0.00 91 1009.3
20260830110525 68 68 2.0 4.0 0.00 0.33 0.00 91 1009.4
20260830110041 68 67 2.0 4.0 0.00 0.33 0.00 91 1009.4
20260830105524 68 65 0.0 2.0 0.00 0.35 0.00 91 1009.4
20260830105020 68 65 0.0 2.0 0.00 0.35 0.00 91 1009.4
20260830104601 68 0 0.0 2.0 0.00 0.35 0.00 91 1009.5
20260830104019 68 65 0.0 2.0 0.00 0.35 0.00 91 1009.4
20260830103521 68 0 0.0 3.0 0.00 0.35 0.00 91 1009.5
20260830103040 68 65 0.0 4.0 0.00 0.35 0.00 90 1009.4
20260830102519 68 66 1.0 4.0 0.00 0.35 0.00 90 1009.3
20260830102019 68 0 0.0 2.0 0.00 0.35 0.00 90 1009.3
20260830101538 68 0 0.0 3.0 0.00 0.35 0.00 91 1009.3
20260830101024 68 0 0.0 3.0 0.00 0.35 0.00 91 1009.2
20260830100523 68 66 0.0 4.0 0.00 0.35 0.00 91 1009.1
20260830100038 68 0 0.0 4.0 0.00 0.35 0.00 91 1009.1
20260830095523 68 66 2.0 7.0 0.00 0.37 0.00 91 1009.0
20260830095020 68 65 2.0 7.0 0.00 0.37 0.00 91 1008.9
20260830094543 68 69 1.0 4.0 0.00 0.37 0.00 91 1008.9
20260830094022 68 69 1.0 4.0 0.00 0.37 0.00 91 1009.1
20260830093520 68 0 0.0 4.0 0.00 0.37 0.00 91 1009.2
20260830093042 68 69 2.0 4.0 0.00 0.37 0.00 91 1009.2
20260830092527 68 69 1.0 4.0 0.00 0.37 0.00 91 1009.3
20260830092025 68 69 2.0 4.0 0.00 0.37 0.00 91 1009.1
20260830091546 68 68 1.0 4.0 0.00 0.37 0.00 91 1009.2
20260830091025 68 68 2.0 4.0 0.00 0.37 0.00 91 1009.3
20260830090524 68 67 2.0 4.0 0.00 0.37 0.00 91 1009.3
20260830090045 68 67 1.0 3.0 0.00 0.37 0.00 90 1009.4
20260830085524 68 68 2.0 3.0 0.00 0.38 0.00 90 1009.4
20260830085027 68 0 0.0 3.0 0.00 0.38 0.00 90 1009.5
20260830084538 68 0 0.0 3.0 0.00 0.38 0.00 90 1009.3
20260830084024 68 68 1.0 3.0 0.00 0.38 0.00 90 1009.1
20260830083524 68 68 1.0 3.0 0.00 0.38 0.00 90 1009.0
20260830083057 68 0 0.0 4.0 0.00 0.38 0.00 90 1009.2